,,,PA_Meas_PMT16A,,PR_Meas_QMR101_102,,RH_Meas_QMH101,,SR_Meas_QMS101,,TA_Meas_QMH101,,GenWind,,GenWind,
date,time,status,PA,status,PR,status,RH,status,SR,status,TA,status,DirAvg,status,SpdAvg,
2012-07-05, 00:00:04,VALID,998.58,VALID,0,VALID,74.5338,VALID,0,VALID,25.7702,VALID,194,VALID,3.85391,
2012-07-05, 00:01:04,VALID,998.627,VALID,0,VALID,73.8089,VALID,0,VALID,26.0631,VALID,166,VALID,3.36797,
2012-07-05, 00:02:04,VALID,998.641,VALID,0,VALID,72.9544,VALID,0,VALID,26.2974,VALID,166,VALID,4.15938,
2012-07-05, 00:03:04,VALID,998.696,VALID,0,VALID,72.3898,VALID,0,VALID,26.3951,VALID,164,VALID,3.19766,
2012-07-05, 00:04:04,VALID,998.721,VALID,0,VALID,73.5114,VALID,0,VALID,26.356,VALID,139,VALID,2.43164,
2012-07-05, 00:05:04,VALID,998.715,VALID,0,VALID,74.282,VALID,0,VALID,26.0807,VALID,159,VALID,1.46641,
2012-07-05, 00:06:04,VALID,998.746,VALID,0,VALID,74.7932,VALID,0.104696,VALID,26.0026,VALID,98,VALID,1.08477,
2012-07-05, 00:07:04,VALID,998.799,VALID,0,VALID,76.6319,VALID,0,VALID,25.8073,VALID,69,VALID,1.17188,
2012-07-05, 00:08:04,VALID,998.791,VALID,0,VALID,78.1121,VALID,0,VALID,25.4559,VALID,62,VALID,0.618359,
2012-07-05, 00:09:04,VALID,998.784,VALID,0,VALID,79.348,VALID,0,VALID,25.1436,VALID,75,VALID,2.32891,
2012-07-05, 00:10:04,VALID,998.783,VALID,0,VALID,81.2173,VALID,0,VALID,24.7727,VALID,62,VALID,1.43867,
2012-07-05, 00:11:04,VALID,998.781,VALID,0,VALID,82.6212,VALID,0,VALID,24.48,VALID,64,VALID,1.68398,
2012-07-05, 00:12:04,VALID,998.747,VALID,0,VALID,85.8943,VALID,0,VALID,24.2848,VALID,74,VALID,1.29766,
2012-07-05, 00:13:04,VALID,998.769,VALID,0,VALID,86.7488,VALID,0,VALID,24.1482,VALID,66,VALID,1.84961,
2012-07-05, 00:14:04,VALID,998.777,VALID,0,VALID,87.5194,VALID,0,VALID,24.0701,VALID,86,VALID,1.66562,
2012-07-05, 00:15:04,VALID,998.78,VALID,0,VALID,88.29,VALID,0,VALID,23.9726,VALID,86,VALID,1.44414,
2012-07-05, 00:16:04,VALID,998.737,VALID,0,VALID,89.0224,VALID,0.104696,VALID,23.875,VALID,75,VALID,1.61836,
2012-07-05, 00:17:04,VALID,998.749,VALID,0,VALID,89.3886,VALID,0,VALID,23.8165,VALID,61,VALID,1.62148,
2012-07-05, 00:18:04,VALID,998.745,VALID,0,VALID,89.6175,VALID,0,VALID,23.7579,VALID,66,VALID,1.17617,
2012-07-05, 00:19:04,VALID,998.735,VALID,0,VALID,89.999,VALID,0,VALID,23.7189,VALID,106,VALID,0.821484,
2012-07-05, 00:20:04,VALID,998.738,VALID,0,VALID,90.5026,VALID,0,VALID,23.6994,VALID,124,VALID,1.06406,
2012-07-05, 00:21:04,VALID,998.753,VALID,0,VALID,90.8001,VALID,0,VALID,23.6799,VALID,116,VALID,1.18008,
2012-07-05, 00:22:04,VALID,998.732,VALID,0,VALID,90.8459,VALID,0,VALID,23.6799,VALID,123,VALID,0.940234,
2012-07-05, 00:23:04,VALID,998.76,VALID,0,VALID,90.8611,VALID,0,VALID,23.6799,VALID,124,VALID,0.901563,
2012-07-05, 00:24:04,VALID,998.787,VALID,0,VALID,90.8459,VALID,0,VALID,23.6604,VALID,135,VALID,1.14023,
2012-07-05, 00:25:04,VALID,998.755,VALID,0,VALID,90.8764,VALID,0.104696,VALID,23.6799,VALID,135,VALID,0.841797,
2012-07-05, 00:26:04,VALID,998.732,VALID,0,VALID,90.8917,VALID,0,VALID,23.6994,VALID,156,VALID,1.24766,
2012-07-05, 00:27:04,VALID,998.743,VALID,0,VALID,91.0671,VALID,0,VALID,23.7579,VALID,156,VALID,1.67422,
2012-07-05, 00:28:04,VALID,998.683,VALID,0,VALID,90.9909,VALID,0,VALID,23.797,VALID,158,VALID,0.9375,
2012-07-05, 00:29:04,VALID,998.66,VALID,0,VALID,90.7009,VALID,0,VALID,23.8165,VALID,159,VALID,0.949609,
2012-07-05, 00:30:04,VALID,998.614,VALID,0,VALID,90.5941,VALID,0,VALID,23.8555,VALID,155,VALID,0.980469,
2012-07-05, 00:31:04,VALID,998.59,VALID,0,VALID,90.4339,VALID,0,VALID,23.8945,VALID,146,VALID,0.895312,
2012-07-05, 00:32:04,VALID,998.59,VALID,0,VALID,90.266,VALID,0,VALID,23.8732,VALID,147,VALID,0.744922,
2012-07-05, 00:33:04,VALID,998.588,VALID,0,VALID,90.0143,VALID,0,VALID,23.8927,VALID,147,VALID,1.08125,
2012-07-05, 00:34:04,VALID,998.603,VALID,0,VALID,89.8464,VALID,0,VALID,23.9336,VALID,154,VALID,1.47891,
2012-07-05, 00:35:04,VALID,998.609,VALID,0,VALID,89.5794,VALID,0,VALID,23.9744,VALID,154,VALID,1.39023,
2012-07-05, 00:36:04,VALID,998.57,VALID,0,VALID,89.7243,VALID,0,VALID,24.0329,VALID,157,VALID,1.45508,
2012-07-05, 00:37:04,VALID,998.574,VALID,0,VALID,89.3963,VALID,0,VALID,24.0329,VALID,143,VALID,1.21563,
2012-07-05, 00:38:04,VALID,998.582,VALID,0,VALID,89.3505,VALID,0,VALID,24.072,VALID,137,VALID,0.932422,
2012-07-05, 00:39:04,VALID,998.551,VALID,0,VALID,89.32,VALID,0,VALID,24.072,VALID,137,VALID,1.02383,
2012-07-05, 00:40:04,VALID,998.584,VALID,0,VALID,89.2284,VALID,0,VALID,24.072,VALID,133,VALID,1.18516,
2012-07-05, 00:41:04,VALID,998.604,VALID,0,VALID,89.4726,VALID,0,VALID,24.072,VALID,132,VALID,1.28477,
2012-07-05, 00:42:04,VALID,998.593,VALID,0,VALID,89.793,VALID,0,VALID,24.0329,VALID,119,VALID,1.05352,
2012-07-05, 00:43:04,VALID,998.621,VALID,0,VALID,89.9685,VALID,0,VALID,23.9939,VALID,102,VALID,1.59805,
2012-07-05, 00:44:04,VALID,998.637,VALID,0,VALID,90.2431,VALID,0,VALID,23.9549,VALID,101,VALID,1.5875,
2012-07-05, 00:45:04,VALID,998.596,VALID,0,VALID,90.5102,VALID,0,VALID,23.9159,VALID,100,VALID,1.34883,
2012-07-05, 00:46:04,VALID,998.576,VALID,0,VALID,90.8917,VALID,0,VALID,23.8963,VALID,96,VALID,1.54844,
2012-07-05, 00:47:04,VALID,998.581,VALID,0,VALID,91.235,VALID,0,VALID,23.8768,VALID,90,VALID,1.50508,
2012-07-05, 00:48:04,VALID,998.588,VALID,0,VALID,91.4257,VALID,0,VALID,23.8573,VALID,82,VALID,1.56641,
2012-07-05, 00:49:04,VALID,998.556,VALID,0,VALID,91.4563,VALID,0,VALID,23.8183,VALID,73,VALID,1.42422,
2012-07-05, 00:50:04,VALID,998.593,VALID,0,VALID,91.5478,VALID,0,VALID,23.7988,VALID,54,VALID,1.24531,
2012-07-05, 00:51:04,VALID,998.576,VALID,0,VALID,91.4715,VALID,0,VALID,23.7402,VALID,52,VALID,1.15742,
2012-07-05, 00:52:04,VALID,998.603,VALID,0,VALID,91.4944,VALID,0,VALID,23.7012,VALID,41,VALID,0.86875,
2012-07-05, 00:53:04,VALID,998.609,VALID,0,VALID,91.7004,VALID,0,VALID,23.6622,VALID,15,VALID,0.678516,
2012-07-05, 00:54:04,VALID,998.652,VALID,0,VALID,91.8835,VALID,0,VALID,23.6427,VALID,15,VALID,0.465234,
2012-07-05, 00:55:04,VALID,998.667,VALID,0,VALID,92.0819,VALID,0,VALID,23.6427,VALID,15,VALID,0.116797,
2012-07-05, 00:56:04,VALID,998.715,VALID,0,VALID,92.1048,VALID,0,VALID,23.6445,VALID,15,VALID,0.0015625,
2012-07-05, 00:57:04,VALID,998.703,VALID,0,VALID,92.0971,VALID,0,VALID,23.6036,VALID,15,VALID,0,
2012-07-05, 00:58:04,VALID,998.676,VALID,0,VALID,92.1734,VALID,0,VALID,23.6036,VALID,15,VALID,0.367578,
2012-07-05, 00:59:04,VALID,998.716,VALID,0,VALID,92.2345,VALID,0,VALID,23.6036,VALID,15,VALID,0.860937,
2012-07-05, 01:00:04,VALID,998.713,VALID,0,VALID,92.1963,VALID,0,VALID,23.5841,VALID,15,VALID,0.208203,
2012-07-05, 01:01:04,VALID,998.675,VALID,0,VALID,92.2574,VALID,0,VALID,23.6054,VALID,23,VALID,0.610937,
2012-07-05, 01:02:04,VALID,998.643,VALID,0,VALID,92.2726,VALID,0,VALID,23.5646,VALID,337,VALID,0.774609,
2012-07-05, 01:03:04,VALID,998.698,VALID,0,VALID,92.2955,VALID,0,VALID,23.5451,VALID,214,VALID,0.622656,
2012-07-05, 01:04:04,VALID,998.662,VALID,0,VALID,91.9522,VALID,0,VALID,23.5256,VALID,311,VALID,0.635938,
2012-07-05, 01:05:04,VALID,998.661,VALID,0,VALID,91.5783,VALID,0.104696,VALID,23.6799,VALID,152,VALID,1.23398,
2012-07-05, 01:06:04,VALID,998.654,VALID,0,VALID,89.8464,VALID,0.104696,VALID,23.8555,VALID,208,VALID,1.35742,
2012-07-05, 01:07:04,VALID,998.614,VALID,0,VALID,86.9395,VALID,0.104696,VALID,24.2263,VALID,202,VALID,1.39844,
2012-07-05, 01:08:04,VALID,998.599,VALID,0,VALID,86.024,VALID,0,VALID,24.4995,VALID,111,VALID,0.846094,
2012-07-05, 01:09:04,VALID,998.64,VALID,0,VALID,84.9558,VALID,0.104696,VALID,24.5385,VALID,94,VALID,0.774219,
2012-07-05, 01:10:04,VALID,998.634,VALID,0,VALID,84.5591,VALID,0,VALID,24.558,VALID,94,VALID,0.139453,
2012-07-05, 01:11:04,VALID,998.626,VALID,0,VALID,85.261,VALID,0,VALID,24.5775,VALID,94,VALID,0.146094,
2012-07-05, 01:12:04,VALID,998.64,VALID,0,VALID,84.8719,VALID,0,VALID,24.5385,VALID,73,VALID,1.55234,
2012-07-05, 01:13:04,VALID,998.655,VALID,0,VALID,85.6349,VALID,0,VALID,24.4409,VALID,81,VALID,0.820313,
2012-07-05, 01:14:04,VALID,998.618,VALID,0,VALID,85.879,VALID,0.104696,VALID,24.3433,VALID,70,VALID,1.15195,
2012-07-05, 01:15:04,VALID,998.603,VALID,0,VALID,85.1313,VALID,0.104696,VALID,24.3629,VALID,96,VALID,0.973047,
2012-07-05, 01:16:04,VALID,998.609,VALID,0,VALID,84.8032,VALID,0,VALID,24.4604,VALID,102,VALID,0,
2012-07-05, 01:17:04,VALID,998.597,VALID,0,VALID,84.5515,VALID,0.104696,VALID,24.48,VALID,102,VALID,0.0738281,
2012-07-05, 01:18:04,VALID,998.585,VALID,0,VALID,83.88,VALID,0.104696,VALID,24.5775,VALID,196,VALID,1.89531,
2012-07-05, 01:19:04,VALID,998.553,VALID,0,VALID,82.438,VALID,0.104696,VALID,24.9093,VALID,158,VALID,1.75391,
2012-07-05, 01:20:04,VALID,998.56,VALID,0,VALID,80.2941,VALID,0,VALID,25.1631,VALID,158,VALID,2.76484,
2012-07-05, 01:21:04,VALID,998.591,VALID,0,VALID,81.5378,VALID,0,VALID,25.2626,VALID,124,VALID,3.15508,
2012-07-05, 01:22:04,VALID,998.566,VALID,0,VALID,82.4915,VALID,0,VALID,25.0479,VALID,127,VALID,1.66641,
2012-07-05, 01:23:04,VALID,998.569,VALID,0,VALID,83.3536,VALID,0,VALID,24.8332,VALID,132,VALID,1.60117,
2012-07-05, 01:24:04,VALID,998.612,VALID,0,VALID,84.7269,VALID,0,VALID,24.677,VALID,141,VALID,2.15273,
2012-07-05, 01:25:04,VALID,998.576,VALID,0,VALID,85.8637,VALID,0,VALID,24.5404,VALID,122,VALID,2.30039,
2012-07-05, 01:26:04,VALID,998.557,VALID,0,VALID,86.8403,VALID,0,VALID,24.4233,VALID,121,VALID,2.33906,
2012-07-05, 01:27:04,VALID,998.547,VALID,0,VALID,87.3897,VALID,0,VALID,24.3452,VALID,121,VALID,1.9582,
2012-07-05, 01:28:04,VALID,998.602,VALID,0,VALID,87.9085,VALID,0,VALID,24.3062,VALID,132,VALID,1.85781,
2012-07-05, 01:29:04,VALID,998.563,VALID,0,VALID,88.3586,VALID,0,VALID,24.2476,VALID,124,VALID,1.48359,
2012-07-05, 01:30:04,VALID,998.526,VALID,0,VALID,88.7554,VALID,0,VALID,24.2067,VALID,107,VALID,1.8543,
2012-07-05, 01:31:04,VALID,998.509,VALID,0,VALID,89.1445,VALID,0,VALID,24.1891,VALID,102,VALID,1.90977,
2012-07-05, 01:32:04,VALID,998.493,VALID,0,VALID,89.2742,VALID,0,VALID,24.1482,VALID,103,VALID,1.77148,
2012-07-05, 01:33:04,VALID,998.498,VALID,0,VALID,89.526,VALID,0,VALID,24.15,VALID,102,VALID,1.6625,
2012-07-05, 01:34:04,VALID,998.495,VALID,0,VALID,90.0143,VALID,0,VALID,24.1305,VALID,103,VALID,1.52266,
2012-07-05, 01:35:04,VALID,998.453,VALID,0,VALID,90.0066,VALID,0,VALID,24.072,VALID,110,VALID,1.86563,
2012-07-05, 01:36:04,VALID,998.481,VALID,0,VALID,90.2431,VALID,0,VALID,24.0506,VALID,109,VALID,1.45,
2012-07-05, 01:37:04,VALID,998.44,VALID,0,VALID,90.4339,VALID,0,VALID,24.0525,VALID,111,VALID,1.4168,
2012-07-05, 01:38:04,VALID,998.437,VALID,0,VALID,90.4949,VALID,0,VALID,24.0525,VALID,111,VALID,1.18633,
2012-07-05, 01:39:04,VALID,998.39,VALID,0,VALID,90.3194,VALID,0,VALID,24.0329,VALID,86,VALID,1.24688,
2012-07-05, 01:40:04,VALID,998.369,VALID,0,VALID,89.5794,VALID,0,VALID,24.0701,VALID,98,VALID,1.29453,
2012-07-05, 01:41:04,VALID,998.317,VALID,0,VALID,89.4954,VALID,0,VALID,24.0897,VALID,98,VALID,0.685156,
2012-07-05, 01:42:04,VALID,998.334,VALID,0,VALID,89.32,VALID,0,VALID,24.0915,VALID,110,VALID,1.03711,
2012-07-05, 01:43:04,VALID,998.292,VALID,0,VALID,89.0148,VALID,0,VALID,24.1305,VALID,110,VALID,0.659375,
2012-07-05, 01:44:04,VALID,998.282,VALID,0,VALID,88.8774,VALID,0,VALID,24.1677,VALID,110,VALID,0.594531,
2012-07-05, 01:45:04,VALID,998.286,VALID,0,VALID,88.618,VALID,0,VALID,24.2086,VALID,110,VALID,0,
2012-07-05, 01:46:04,VALID,998.284,VALID,0,VALID,88.496,VALID,0,VALID,24.1891,VALID,110,VALID,0.291016,
2012-07-05, 01:47:04,VALID,998.287,VALID,0,VALID,88.7172,VALID,0,VALID,24.2067,VALID,89,VALID,0.728906,
2012-07-05, 01:48:04,VALID,998.298,VALID,0,VALID,88.3357,VALID,0,VALID,24.2086,VALID,91,VALID,0.235547,
2012-07-05, 01:49:04,VALID,998.289,VALID,0,VALID,87.8322,VALID,0,VALID,24.2476,VALID,174,VALID,0.673828,
2012-07-05, 01:50:04,VALID,998.27,VALID,0,VALID,84.7422,VALID,0,VALID,24.4428,VALID,164,VALID,2.28125,
2012-07-05, 01:51:04,VALID,998.249,VALID,0,VALID,78.6309,VALID,0,VALID,24.9893,VALID,165,VALID,3.6043,
2012-07-05, 01:52:04,VALID,998.273,VALID,0,VALID,75.6019,VALID,0,VALID,25.4188,VALID,169,VALID,2.61562,
2012-07-05, 01:53:04,VALID,998.291,VALID,0,VALID,73.7861,VALID,0,VALID,25.7702,VALID,184,VALID,3.12383,
2012-07-05, 01:54:04,VALID,998.346,VALID,0,VALID,73.0612,VALID,0,VALID,26.0045,VALID,141,VALID,2.89375,
2012-07-05, 01:55:04,VALID,998.423,VALID,0,VALID,74.5414,VALID,0,VALID,26.0045,VALID,102,VALID,2.66992,
2012-07-05, 01:56:04,VALID,998.376,VALID,0,VALID,76.1665,VALID,0,VALID,25.7116,VALID,112,VALID,2.02734,
2012-07-05, 01:57:04,VALID,998.371,VALID,0,VALID,77.372,VALID,0,VALID,25.4383,VALID,119,VALID,1.14023,
2012-07-05, 01:58:04,VALID,998.392,VALID,0,VALID,78.6843,VALID,0,VALID,25.3017,VALID,90,VALID,1.51172,
2012-07-05, 01:59:04,VALID,998.409,VALID,0,VALID,79.3938,VALID,0,VALID,25.1455,VALID,68,VALID,0.845703,
2012-07-05, 02:00:04,VALID,998.379,VALID,0,VALID,80.4543,VALID,0,VALID,25.0088,VALID,77,VALID,0.458203,
2012-07-05, 02:01:04,VALID,998.384,VALID,0,VALID,80.9503,VALID,0,VALID,24.8722,VALID,85,VALID,0.458594,
2012-07-05, 02:02:04,VALID,998.353,VALID,0,VALID,81.1868,VALID,0,VALID,24.7532,VALID,83,VALID,0.483203,
2012-07-05, 02:03:04,VALID,998.327,VALID,0,VALID,81.4615,VALID,0,VALID,24.6965,VALID,83,VALID,0.399219,
2012-07-05, 02:04:04,VALID,998.346,VALID,0,VALID,81.5454,VALID,0,VALID,24.6184,VALID,88,VALID,0.763672,
2012-07-05, 02:05:04,VALID,998.345,VALID,0,VALID,81.9803,VALID,0.104696,VALID,24.558,VALID,94,VALID,0.278516,
2012-07-05, 02:06:04,VALID,998.334,VALID,0,VALID,82.0489,VALID,0,VALID,24.4995,VALID,93,VALID,0.0429688,
2012-07-05, 02:07:04,VALID,998.37,VALID,0,VALID,82.6212,VALID,0.104696,VALID,24.5013,VALID,154,VALID,0.594141,
2012-07-05, 02:08:04,VALID,998.403,VALID,0,VALID,82.7509,VALID,0,VALID,24.4604,VALID,186,VALID,0.603516,
2012-07-05, 02:09:04,VALID,998.394,VALID,0,VALID,82.7432,VALID,0.104696,VALID,24.4604,VALID,186,VALID,0.577734,
2012-07-05, 02:10:04,VALID,998.443,VALID,0,VALID,82.728,VALID,0.104696,VALID,24.4586,VALID,208,VALID,0.803516,
2012-07-05, 02:11:04,VALID,998.469,VALID,0,VALID,82.1023,VALID,0,VALID,24.4995,VALID,208,VALID,1.11133,
2012-07-05, 02:12:04,VALID,998.392,VALID,0,VALID,81.1105,VALID,0.104696,VALID,24.5775,VALID,208,VALID,0.733594,
2012-07-05, 02:13:04,VALID,998.377,VALID,0,VALID,80.5535,VALID,0,VALID,24.6946,VALID,219,VALID,0.427344,
2012-07-05, 02:14:04,VALID,998.393,VALID,0,VALID,80.6298,VALID,0,VALID,24.7532,VALID,219,VALID,0,
2012-07-05, 02:15:04,VALID,998.406,VALID,0,VALID,81.08,VALID,0,VALID,24.7532,VALID,219,VALID,0,
2012-07-05, 02:16:04,VALID,998.378,VALID,0,VALID,80.4772,VALID,0,VALID,24.7532,VALID,220,VALID,1.17539,
2012-07-05, 02:17:04,VALID,998.385,VALID,0,VALID,79.432,VALID,0.104696,VALID,24.8508,VALID,217,VALID,1.50781,
2012-07-05, 02:18:04,VALID,998.346,VALID,0,VALID,78.2799,VALID,0,VALID,24.9855,VALID,225,VALID,1.03398,
2012-07-05, 02:19:04,VALID,998.29,VALID,0,VALID,77.2118,VALID,0.104696,VALID,25.1241,VALID,234,VALID,1.38594,
2012-07-05, 02:20:04,VALID,998.276,VALID,0,VALID,76.6624,VALID,0,VALID,25.2236,VALID,233,VALID,0.921484,
2012-07-05, 02:21:04,VALID,998.173,VALID,0,VALID,77.4864,VALID,0,VALID,25.2821,VALID,273,VALID,0.834375,
2012-07-05, 02:22:04,VALID,998.203,VALID,0,VALID,77.7001,VALID,0,VALID,25.2626,VALID,275,VALID,1.0457,
2012-07-05, 02:23:04,VALID,998.185,VALID,0,VALID,77.1889,VALID,0,VALID,25.2236,VALID,240,VALID,1.61055,
2012-07-05, 02:24:04,VALID,998.114,VALID,0,VALID,75.4875,VALID,0,VALID,25.3388,VALID,206,VALID,2.17461,
2012-07-05, 02:25:04,VALID,998.115,VALID,0,VALID,74.7703,VALID,0,VALID,25.4774,VALID,213,VALID,2.16367,
2012-07-05, 02:26:04,VALID,998.105,VALID,0,VALID,74.8084,VALID,0,VALID,25.5555,VALID,224,VALID,1.32578,
2012-07-05, 02:27:04,VALID,998.062,VALID,0,VALID,73.6487,VALID,0,VALID,25.6336,VALID,217,VALID,2.75078,
2012-07-05, 02:28:04,VALID,998.081,VALID,0,VALID,73.3359,VALID,0,VALID,25.7116,VALID,178,VALID,2.86445,
2012-07-05, 02:29:04,VALID,998.043,VALID,0,VALID,73.3893,VALID,0,VALID,25.7507,VALID,175,VALID,3.10313,
2012-07-05, 02:30:04,VALID,997.975,VALID,0,VALID,73.519,VALID,0,VALID,25.7897,VALID,175,VALID,3.39414,
2012-07-05, 02:31:04,VALID,998.022,VALID,0,VALID,74.343,VALID,0,VALID,25.8288,VALID,175,VALID,3.31133,
2012-07-05, 02:32:04,VALID,997.987,VALID,0,VALID,74.5948,VALID,0,VALID,25.8093,VALID,180,VALID,2.47031,
2012-07-05, 02:33:04,VALID,998.005,VALID,0,VALID,75.1518,VALID,0,VALID,25.7292,VALID,170,VALID,2.63008,
2012-07-05, 02:34:04,VALID,998.026,VALID,0,VALID,75.7163,VALID,0,VALID,25.6726,VALID,147,VALID,1.35742,
2012-07-05, 02:35:04,VALID,998.018,VALID,0,VALID,76.5022,VALID,0,VALID,25.575,VALID,150,VALID,1.49453,
2012-07-05, 02:36:04,VALID,998.019,VALID,0,VALID,76.8913,VALID,0,VALID,25.4774,VALID,158,VALID,1.71211,
2012-07-05, 02:37:04,VALID,998.017,VALID,0,VALID,76.2275,VALID,0,VALID,25.4383,VALID,170,VALID,2.26758,
2012-07-05, 02:38:04,VALID,998.043,VALID,0,VALID,76.6395,VALID,0,VALID,25.4188,VALID,139,VALID,2.06172,
2012-07-05, 02:39:04,VALID,998.012,VALID,0,VALID,76.2809,VALID,0,VALID,25.2821,VALID,165,VALID,1.55117,
2012-07-05, 02:40:04,VALID,998.005,VALID,0.5,VALID,78.4783,VALID,0,VALID,25.2626,VALID,167,VALID,1.40352,
2012-07-05, 02:41:04,VALID,997.993,VALID,0,VALID,77.3872,VALID,0,VALID,25.2236,VALID,173,VALID,1.56719,
2012-07-05, 02:42:04,VALID,998.033,VALID,0,VALID,78.669,VALID,0,VALID,25.1845,VALID,164,VALID,1.31602,
2012-07-05, 02:43:04,VALID,998.022,VALID,0,VALID,79.2794,VALID,0,VALID,25.126,VALID,158,VALID,1.12773,
2012-07-05, 02:44:04,VALID,998.022,VALID,0,VALID,79.5769,VALID,0,VALID,25.0284,VALID,148,VALID,0.914844,
2012-07-05, 02:45:04,VALID,997.961,VALID,0,VALID,80.2255,VALID,0,VALID,24.9698,VALID,148,VALID,0.288672,
2012-07-05, 02:46:04,VALID,997.986,VALID,0,VALID,79.6227,VALID,0,VALID,24.8917,VALID,148,VALID,0,
2012-07-05, 02:47:04,VALID,997.959,VALID,0,VALID,79.8516,VALID,0,VALID,24.8527,VALID,148,VALID,0,
2012-07-05, 02:48:04,VALID,997.961,VALID,0,VALID,78.9742,VALID,0,VALID,24.8722,VALID,185,VALID,1.85195,
2012-07-05, 02:49:04,VALID,997.908,VALID,0,VALID,78.1197,VALID,0,VALID,25.0088,VALID,199,VALID,0.978125,
2012-07-05, 02:50:04,VALID,997.906,VALID,0,VALID,76.5785,VALID,0,VALID,25.1436,VALID,209,VALID,2.56055,
2012-07-05, 02:51:04,VALID,997.835,VALID,0,VALID,76.3496,VALID,0,VALID,25.2997,VALID,166,VALID,2.3043,
2012-07-05, 02:52:04,VALID,997.789,VALID,0,VALID,76.258,VALID,0,VALID,25.3193,VALID,164,VALID,3.2918,
2012-07-05, 02:53:04,VALID,997.795,VALID,0,VALID,76.6624,VALID,0,VALID,25.2997,VALID,211,VALID,1.73281,
2012-07-05, 02:54:04,VALID,997.743,VALID,0,VALID,76.0139,VALID,0,VALID,25.2607,VALID,195,VALID,2.43789,
2012-07-05, 02:55:04,VALID,997.712,VALID,0,VALID,76.6853,VALID,0.104696,VALID,25.2412,VALID,186,VALID,2.89063,
2012-07-05, 02:56:04,VALID,997.735,VALID,0,VALID,77.6238,VALID,0,VALID,25.2021,VALID,191,VALID,2.01875,
2012-07-05, 02:57:04,VALID,997.71,VALID,0,VALID,77.2575,VALID,0,VALID,25.1631,VALID,194,VALID,2.41172,
2012-07-05, 02:58:04,VALID,997.694,VALID,0,VALID,77.7992,VALID,0,VALID,25.1436,VALID,194,VALID,2.01367,
2012-07-05, 02:59:04,VALID,997.635,VALID,0,VALID,78.2952,VALID,0,VALID,25.0869,VALID,219,VALID,1.65391,
2012-07-05, 03:00:04,VALID,997.68,VALID,0,VALID,78.6156,VALID,0,VALID,24.9874,VALID,196,VALID,1.9582,
2012-07-05, 03:01:04,VALID,997.648,VALID,0,VALID,78.8979,VALID,0.104696,VALID,24.8898,VALID,211,VALID,1.33906,
2012-07-05, 03:02:04,VALID,997.66,VALID,0,VALID,79.2031,VALID,0,VALID,24.8313,VALID,199,VALID,1.5957,
2012-07-05, 03:03:04,VALID,997.652,VALID,0,VALID,80.0881,VALID,0.104696,VALID,24.7708,VALID,188,VALID,0.971484,
2012-07-05, 03:04:04,VALID,997.672,VALID,0,VALID,79.9813,VALID,0,VALID,24.7142,VALID,175,VALID,2.6957,
2012-07-05, 03:05:04,VALID,997.655,VALID,0,VALID,81.2707,VALID,0,VALID,24.7374,VALID,160,VALID,2.43672,
2012-07-05, 03:06:04,VALID,997.647,VALID,0,VALID,81.8506,VALID,0,VALID,24.6184,VALID,147,VALID,2.07109,
2012-07-05, 03:07:04,VALID,997.657,VALID,0,VALID,82.1329,VALID,0,VALID,24.4428,VALID,139,VALID,1.55703,
2012-07-05, 03:08:04,VALID,997.655,VALID,0.5,VALID,83.1323,VALID,0,VALID,24.3647,VALID,142,VALID,1.3168,
2012-07-05, 03:09:04,VALID,997.662,VALID,0,VALID,85.2381,VALID,0,VALID,24.2866,VALID,131,VALID,1.39414,
2012-07-05, 03:10:04,VALID,997.671,VALID,0,VALID,86.7259,VALID,0,VALID,24.2476,VALID,132,VALID,1.16562,
2012-07-05, 03:11:04,VALID,997.623,VALID,0,VALID,87.4965,VALID,0,VALID,24.1891,VALID,129,VALID,1.31914,
2012-07-05, 03:12:04,VALID,997.641,VALID,0,VALID,87.8551,VALID,0,VALID,24.1305,VALID,143,VALID,1.3418,
2012-07-05, 03:13:04,VALID,997.65,VALID,0,VALID,88.4044,VALID,0,VALID,24.0915,VALID,149,VALID,1.29688,
2012-07-05, 03:14:04,VALID,997.647,VALID,0,VALID,89.0911,VALID,0,VALID,24.0933,VALID,149,VALID,1.35078,
2012-07-05, 03:15:04,VALID,997.628,VALID,0,VALID,88.8011,VALID,0,VALID,23.9939,VALID,149,VALID,1.23164,
2012-07-05, 03:16:04,VALID,997.59,VALID,0,VALID,89.175,VALID,0,VALID,23.9744,VALID,149,VALID,1.1418,
2012-07-05, 03:17:04,VALID,997.587,VALID,0,VALID,89.5412,VALID,0,VALID,23.9354,VALID,149,VALID,0.937891,
2012-07-05, 03:18:04,VALID,997.561,VALID,0,VALID,89.4954,VALID,0,VALID,23.8963,VALID,149,VALID,0.670703,
2012-07-05, 03:19:04,VALID,997.582,VALID,0,VALID,89.8693,VALID,0,VALID,23.8963,VALID,149,VALID,0.626172,
2012-07-05, 03:20:04,VALID,997.601,VALID,0.5,VALID,90.3576,VALID,0,VALID,23.8573,VALID,149,VALID,0.227344,
2012-07-05, 03:21:04,VALID,997.575,VALID,0,VALID,90.8993,VALID,0,VALID,23.8378,VALID,149,VALID,0.0785156,
2012-07-05, 03:22:04,VALID,997.585,VALID,0,VALID,91.235,VALID,0,VALID,23.7793,VALID,149,VALID,0,
2012-07-05, 03:23:04,VALID,997.603,VALID,0,VALID,91.6088,VALID,0,VALID,23.7402,VALID,149,VALID,0.143359,
2012-07-05, 03:24:04,VALID,997.596,VALID,0,VALID,91.998,VALID,0,VALID,23.7207,VALID,149,VALID,0.674609,
2012-07-05, 03:25:04,VALID,997.619,VALID,0,VALID,92.0666,VALID,0,VALID,23.6817,VALID,149,VALID,0.207422,
2012-07-05, 03:26:04,VALID,997.648,VALID,0,VALID,92.2726,VALID,0,VALID,23.6427,VALID,149,VALID,0.653906,
2012-07-05, 03:27:04,VALID,997.681,VALID,0,VALID,92.4023,VALID,0,VALID,23.6036,VALID,30,VALID,0.879687,
2012-07-05, 03:28:04,VALID,997.682,VALID,0,VALID,92.3794,VALID,0,VALID,23.5859,VALID,42,VALID,1.32734,
2012-07-05, 03:29:04,VALID,997.699,VALID,0,VALID,92.9059,VALID,0,VALID,23.5841,VALID,53,VALID,1.26367,
2012-07-05, 03:30:04,VALID,997.692,VALID,0,VALID,92.8754,VALID,0,VALID,23.5451,VALID,51,VALID,0.9125,
2012-07-05, 03:31:04,VALID,997.671,VALID,0,VALID,92.9593,VALID,0,VALID,23.5256,VALID,51,VALID,0.621875,
2012-07-05, 03:32:04,VALID,997.591,VALID,0,VALID,93.0585,VALID,0,VALID,23.5274,VALID,51,VALID,0.458984,
2012-07-05, 03:33:04,VALID,997.562,VALID,0,VALID,93.2645,VALID,0,VALID,23.5061,VALID,354,VALID,0.633203,
2012-07-05, 03:34:04,VALID,997.513,VALID,0,VALID,93.501,VALID,0,VALID,23.5274,VALID,274,VALID,0.920703,
2012-07-05, 03:35:04,VALID,997.501,VALID,0,VALID,93.6002,VALID,0,VALID,23.5256,VALID,274,VALID,0.739062,
2012-07-05, 03:36:04,VALID,997.45,VALID,0,VALID,93.6688,VALID,0,VALID,23.5256,VALID,266,VALID,0.885938,
2012-07-05, 03:37:04,VALID,997.443,VALID,0,VALID,93.6688,VALID,0,VALID,23.5061,VALID,266,VALID,0.412891,
2012-07-05, 03:38:04,VALID,997.448,VALID,0,VALID,93.6841,VALID,0,VALID,23.5061,VALID,266,VALID,0.464063,
2012-07-05, 03:39:04,VALID,997.452,VALID,0,VALID,93.7451,VALID,0,VALID,23.5256,VALID,266,VALID,0.239063,
2012-07-05, 03:40:04,VALID,997.48,VALID,0,VALID,93.7299,VALID,0,VALID,23.5256,VALID,266,VALID,0.0902344,
2012-07-05, 03:41:04,VALID,997.52,VALID,0,VALID,93.7375,VALID,0,VALID,23.5256,VALID,266,VALID,0.168359,
2012-07-05, 03:42:04,VALID,997.502,VALID,0,VALID,93.7451,VALID,0,VALID,23.5256,VALID,266,VALID,0.416797,
2012-07-05, 03:43:04,VALID,997.494,VALID,0,VALID,93.768,VALID,0,VALID,23.5274,VALID,266,VALID,0.297656,
2012-07-05, 03:44:04,VALID,997.459,VALID,0,VALID,93.7604,VALID,0,VALID,23.5079,VALID,266,VALID,0.0402344,
2012-07-05, 03:45:04,VALID,997.45,VALID,0,VALID,93.7985,VALID,0,VALID,23.4866,VALID,266,VALID,0,